#timestamp,LO_Frequency,Hit,StdDev 
1536328815.2,286047000.4,N
1536328835.1,286046998.5,N
1536328836.0,286046998.5,N
1536328855.8,286047001.1,N
1536328875.6,286046998.6,N
1536328895.5,286046998.1,N
1536328915.3,286047000.6,N
1536328935.2,286046999.9,N
1536328955.9,286047000.0,N
1536328975.7,286047000.3,N
1536328995.6,286047000.3,N
1536329015.4,286047000.5,N
1536329035.2,286047001.2,N
1536329055.1,286046998.3,N
1536329056.0,286046998.3,N
1536329075.8,286046996.6,N
1536329095.7,286046997.2,N
1536329115.5,286046997.7,N
1536329135.3,286046998.0,N
1536329155.2,286046997.9,N
1536329175.0,286046997.1,N
1536329175.9,286046997.1,N
1536329195.8,286046999.6,N
1536329215.6,286046999.6,N
1536329235.4,286046999.2,N
1536329255.3,286046999.2,N
1536329275.1,286046999.5,N
1536329295.8,286046996.9,N
1536329315.7,286046996.5,N
1536329335.5,286046999.2,N
1536329355.4,286046996.8,N
1536329375.2,286046996.5,N
1536329395.0,286046998.4,N
1536329395.9,286046998.4,N
1536329415.8,286046998.1,N
1536329435.6,286046998.1,N
1536329455.5,286047000.9,N
1536329475.3,286047000.3,N
1536329495.1,286047000.6,N
1536329515.9,286047000.2,N
1536329535.7,286047000.0,N
1536329555.5,286047000.4,N
1536329575.4,286047002.4,N
1536329595.2,286046999.8,N
1536329615.1,286046999.7,N
1536329646.0,286047000.0,E
1536329655.0,286047002.7,N
1536329655.9,286047002.7,P
1536329675.8,286047002.0,P
1536329695.6,286047000.1,N
1536329715.4,286047000.3,N
1536329735.3,286047002.3,N
1536329755.1,286047000.4,N
1536329775.8,286047000.1,N
1536329795.7,286047002.4,N
1536329815.5,286047002.8,N
1536329835.4,286047002.4,N
1536329855.2,286047002.7,N
1536329875.0,286047001.4,N
1536329875.9,286047001.4,N
1536329895.8,286047003.7,Y
1536329915.6,286047002.6,P
1536329935.5,286047001.6,P
1536329955.3,286047002.5,P
1536329975.1,286047002.4,Y
1536329995.9,286046998.3,P
1536330015.7,286046998.7,N
1536330035.5,286046998.3,N
1536330055.4,286046998.3,N
1536330075.2,286046996.9,N
1536330095.1,286046999.5,N
1536330096.0,286046999.5,N
1536330115.8,286046998.7,N
1536330135.6,286046998.1,N
1536330155.5,286046998.5,N
1536330175.3,286046999.4,N
1536330195.1,286046998.1,N
1536330215.9,286046998.9,N
1536330235.7,286046998.7,N
1536330255.6,286046998.7,N
1536330275.4,286046998.4,N
1536330295.2,286046998.2,N
1536330315.1,286046998.1,N
1536330316.0,286046998.1,N
1536330335.8,286047001.1,N
1536330355.7,286046998.3,N
1536330375.5,286047000.8,N
1536330395.3,286046998.8,N
1536330415.2,286046998.9,N
1536330435.0,286046999.5,N
1536330435.9,286046999.5,N
1536330455.7,286046999.3,N
1536330475.6,286046999.0,N
1536330495.4,286046999.4,N
1536330515.3,286046997.3,N
1536330535.1,286046996.9,Y
1536330555.8,286046999.2,P
1536330575.7,286046999.4,N
1536330595.5,286046998.2,P
1536330615.4,286047001.1,N
1536330635.2,286047000.1,N
1536330655.0,286046998.2,N
1536330655.9,286046998.2,N
1536330675.8,286046998.3,N
1536330695.6,286047000.8,N
1536330715.4,286047000.0,N
1536330735.3,286046998.2,N
1536330755.1,286046999.3,N
1536330775.9,286046998.3,N
1536330795.7,286047001.2,N
1536330815.5,286047001.0,N
1536330835.4,286047000.3,N
1536330855.2,286047001.0,N
1536330875.0,286047002.7,N
1536330875.9,286047002.7,N
1536330895.8,286047000.7,N
1536330915.6,286047000.3,N
1536330935.5,286047001.2,N
1536330955.3,286046999.3,N
1536330975.1,286046999.0,N
1536330995.9,286046998.7,N
1536331015.7,286046998.3,N
1536331035.6,286047000.2,N
1536331055.4,286047002.1,N
1536331075.2,286047001.8,N
1536331095.1,286046999.7,N
1536331096.0,286046999.7,N
1536331115.8,286047001.1,N
1536331135.6,286046998.3,N
1536331155.5,286046999.6,N
1536331175.3,286046998.7,N
1536331195.2,286046997.1,N
1536331215.9,286046995.4,Y
1536331235.7,286046995.1,P
1536331255.6,286046995.6,N
1536331275.4,286046997.9,N
1536331295.2,286046995.0,N
1536331315.1,286046994.9,N
1536331316.0,286046994.9,N
1536331335.8,286046995.2,N
1536331355.7,286046995.4,N
1536331375.5,286046998.0,N
1536331395.3,286046997.3,N
1536331415.2,286046996.9,N
1536331435.0,286046998.9,N
1536331435.9,286046998.9,N
1536331455.8,286046998.6,N
1536331475.6,286047000.5,N
1536331495.4,286046998.5,N
1536331515.3,286047000.7,N
1536331535.1,286047000.6,N
1536331555.9,286046998.5,N
1536331605.7,286046998.6,E
1536331615.6,286046998.2,N
1536331635.5,286047000.0,P
1536331655.3,286047000.9,N
1536331675.2,286047001.4,N
1536331695.9,286047001.1,N
1536331715.7,286047000.6,N
1536331735.6,286047000.7,N
1536331755.4,286046999.3,N
1536331775.2,286046999.1,N
1536331795.1,286046996.5,Y
1536331796.0,286046996.5,P
1536331815.8,286046999.5,N
1536331835.7,286046996.5,N
1536331855.5,286046996.5,N
1536331875.3,286046998.8,N
1536331895.2,286046997.3,N
1536331915.0,286046999.5,N
1536331915.9,286046999.5,N
1536331935.8,286046996.9,N
1536331955.6,286046999.2,N
1536331975.4,286046996.7,N
1536331995.3,286046996.6,N
1536332015.1,286046996.5,N
1536332035.8,286046999.2,N
1536332055.7,286046996.7,N
1536332075.5,286046997.3,N
1536332095.4,286046996.7,N
1536332115.2,286046996.6,N
1536332135.0,286046996.8,N
1536332135.9,286046996.8,N
1536332155.8,286046995.7,Y
1536332175.6,286046999.4,P
1536332195.5,286046996.9,P
1536332215.3,286046999.4,N
1536332235.1,286047000.0,N
1536332255.9,286047000.9,N
1536332275.7,286047000.1,N
1536332295.5,286046999.9,N
1536332315.4,286047002.4,N
1536332335.2,286046999.8,N
1536332355.1,286047000.5,N
1536332356.0,286047000.5,N
1536332375.8,286047001.2,N
1536332395.6,286046999.1,N
